Location: Newark
(35.0167°N, 135.7667°E)
Time: 01:06:32
(UTC+00:00)

Envisat - Visible Passes

Search period start: 17 October 2019 00:00
Search period end: 27 October 2019 00:00
Orbit: 764 x 766 km, 98.1° (Epoch: 16 October)

Date Brightness Start Highest point End Pass type
(mag) Time Alt. Az. Time Alt. Az. Time Alt. Az.
17 Oct 3.3 09:18:34 10° S 09:23:36 70° WSW 09:28:41 10° NNW visible
18 Oct 3.2 08:42:03 10° SSE 08:46:55 49° ENE 08:51:49 10° N visible
18 Oct 5.9 10:23:10 10° SW 10:26:10 16° W 10:29:11 10° NW visible
19 Oct 4.5 09:44:29 10° SSW 09:49:09 37° W 09:53:52 10° NNW visible
20 Oct 3.0 09:07:16 10° SSE 09:12:21 89° WSW 09:17:27 10° NNW visible
21 Oct 5.6 10:11:06 10° SW 10:14:49 20° W 10:18:33 10° NW visible
22 Oct 4.0 09:32:59 10° S 09:37:52 48° W 09:42:47 10° NNW visible
23 Oct 2.9 08:56:04 10° SSE 09:01:06 71° ENE 09:06:10 10° N visible
23 Oct 6.3 10:39:36 10° WSW 10:40:33 10° W 10:41:31 10° W visible
24 Oct 5.2 09:59:16 10° SSW 10:03:28 26° W 10:07:43 10° NW visible
24 Oct 6.4 20:33:50 10° ENE 20:36:10 13° E 20:38:30 10° ESE visible
25 Oct 3.5 09:21:34 10° S 09:26:34 63° WSW 09:31:37 10° NNW visible
26 Oct 3.1 08:44:57 10° SSE 08:49:52 55° ENE 08:54:50 10° N visible
26 Oct 6.0 10:26:32 10° SW 10:29:10 14° W 10:31:50 10° WNW visible
